Regional Weather Roundup
Issued by NWS Portland, ME

Home | Current Version | Previous Version | Text Only | Print | Product List | Glossary On
Versions: 1 2 3 4 5 6 7 8 9 10 11 12 13 14 15 16 17 18 19 20 21 22 23 24 25 26 27 28 29 30 31 32 33 34 35 36 37 38 39 40 41 42 43 44 45 46 47 48 49 50
000
ASUS41 KGYX 251310
RWRGYX
WEATHER ROUNDUP FOR MAINE AND NEW HAMPSHIRE
NATIONAL WEATHER SERVICE GRAY ME
900 AM EDT WED MAY 25 2016

MEZ002-005-006-010-012-015-018-020-021-024-026-027-029-251400-
MAINE

CITY           SKY/WX    TMP DP  RH WIND       PRES   REMARKS
PORTLAND       CLOUDY    55  55 100 S5        29.99R FOG
SANFORD        CLOUDY    57  52  82 SW3       29.99F
BAR HARBOR     CLOUDY    54  54 100 SW3       29.98F
WISCASSET      CLOUDY    55  53  93 S5        30.00R FOG
ROCKLAND       CLOUDY    55  53  93 S6        29.98S
FRYEBURG       CLOUDY    62  56  80 CALM      29.97S
LEWISTONAUBURN CLOUDY    57  54  88 S5        29.98R
AUGUSTA        CLOUDY    57  55  93 S5        29.97S
WATERVILLE     CLOUDY    57  55  93 VRB5      29.94S
BANGOR         CLOUDY    61  54  77 S8        29.97S
GREENVILLE       N/A     62  52  69 CALM      29.92S
MILLINOCKET    CLOUDY    60  55  83 S8        29.95S
HOULTON        PTSUNNY   63  56  78 SW6       29.92F
PRESQUE ISLE   SUNNY     64  54  69 S7        29.91F
FRENCHVILLE    CLOUDY    60  54  80 S8        29.89F
CARIBOU        MOSUNNY   64  55  72 S6        29.90F
$$

NHZ002-005-008-009-011-012-014-251400-
NEW HAMPSHIRE

CITY           SKY/WX    TMP DP  RH WIND       PRES   REMARKS
ROCHESTER      CLOUDY    59  56  89 CALM      29.98S
NASHUA         PTSUNNY   62  56  80 SE5       30.00S
MANCHESTER     PTSUNNY   61  55  81 S6        29.98S
CONCORD        CLOUDY    60  55  83 CALM      29.99S
PLYMOUTH       PTSUNNY   57  56  98 CALM      29.98F
BERLIN         SUNNY     64  54  69 SW3       29.96F
WHITEFIELD     MOSUNNY   62  55  77 CALM      29.98F
JAFFREY        SUNNY     57  55  93 VRB6      30.01S
KEENE          CLOUDY   N/A N/A N/A MISG        N/A
LEBANON        CLOUDY    60  54  80 CALM      29.99S
MT WASHINGTON  MOSUNNY   50  46  87 NW22G40     N/A
$$

VTZ005-007-008-251400-
VERMONT

CITY           SKY/WX    TMP DP  RH WIND       PRES   REMARKS
ST JOHNSBURY     N/A     58  54  86 MISG      29.97S
MONTPELIER     PTSUNNY   57  56  96 CALM      30.02S
BURLINGTON     FAIR      68  51  54 S14G21    29.97R
$$

MAZ007-012-024-CTZ003-RIZ002-NYZ038-NYZ072-251400-
SOUTHERN NEW ENGLAND AND NY

CITY           SKY/WX    TMP DP  RH WIND       PRES   REMARKS
BOSTON         MOSUNNY   62  56  80 SW3       30.00F
WORCESTER      SUNNY     62  51  67 W9        30.01S
NANTUCKET      MOSUNNY   61  56  83 NW8       30.04R
PROVIDENCE     MOSUNNY   63  57  81 VRB3      30.01F
HARTFORD       MOSUNNY   64  55  72 SE5       30.01S
ALBANY         MOSUNNY   64  53  67 S7        30.05R
NEW YORK CITY  MOSUNNY   72  52  49 W5        30.06S
$$

ANZ081-ANZ082-ANZ150-NHZ014-MEZ023>029-251400-
COASTAL MARINE OBSERVATIONS

STATION/POSITION TIME  TEMP    WIND        PRES    WAVE
                       AIR SEA DIR/SP/G            HT/PER
                 (UTC) (F)     (DEG/KT/KT) (MB)    (FT/S)
MOUNT DESERT ROC 1300   49     360/  3/  3 1015.4F
MATINICUS ROCK   1300   49     280/  3/  4 1015.0F
ISLE OF SHOALS   1300   53     190/  8/  8 1015.6F
JEFFREYS LEDGE   1208      51                N/A     3/ 8
CASHES LEDGE BUO 1250   49 50  240/  4/  4 1015.6R   4/ 7
GEORGES BANK BUO 1150   51 50              1016.1    5/ 8
$$

.............KEY..............
   WCI - WIND CHILL
   TC  - TEMPERATURE IN CELSIUS
   VSB - VISIBILITY IN MILES
   HX  - HEAT INDEX
   FAIR- INDICATES FEW OR NO CLOUDS BELOW 12,000 FT, WITH NO
         SIGNIFICANT WEATHER AND/OR OBSTRUCTIONS TO VISIBILITY.





USA.gov is the U.S. government's official web portal to all federal, state and local government web resources and services.